Showing default

OV1-14, 3174

Orbit data source: Space-Track

OV1-14, 3174 is a payload satellite owned by USAF OAR (US) that was launched on Sat, 06 Apr 1968 UTC via an ATLAS F launch vehicle from the Air Force Western Test Range (AFWTR). Payload-class satellites include a variety of spacecraft equipped with specific instruments for various scientific and technological missions. These include communications satellites like Starlink; space stations such as the ISS; scientific satellites like the Hubble; Earth observation satellites from companies like Planet Labs, Umbra, and HawkEye 360; GPS; miniature CubeSats for education and research; and military/defense satellites.

Loading next visibility...
Identifier
3174, 1968-026B
Orbit
Active
Country
Flag of USUS
Related business
Manufacturer
GD/Convair
Mission
Spacecraft
Bus & Motor
OV1, Unknown motor
Mass
101 kg wet, 101 kg dry
Launch date (UTC)
1968-04-06 (58 years ago)
Launch vehicle
ATLAS F
Launch site
Air Force Western Test Range (AFWTR)
Object type
Payload
Rocket body
Debris
Shape & HBR
Unknown
Radar Cross Section
Medium (>0.1 m² and <1 m²)

Expand to show TLE details & history
Last TLE update: 16 hours ago

TLE from 16 hours ago
0 OV1-14
1  3174U 68026B   25353.37678711  .00000054  00000-0  91856-4 0  9997
2  3174 100.0140 305.0189 4001230  74.5385  16.2931  6.96710200463793
Epoch: 2025-12-19T09:02Z
TLE epoch observation values (Epoch: 2025-12-19T09:02:34.406Z)
Latitude
64.04692°
Longitude
-77.69157°
Altitude
1,065.829 km
Speed
8.538 km/s
True Right ascension
09h 44m 40s
True Declination
63° 55' 01"
Sunlit
Object was in full shadow at epoch
Visualization orbit readout
Latitude
Unknown
Longitude
Unknown
Altitude
Unknown
Speed
Unknown
Apparent Right ascension
Unknown
Apparent Declination
Unknown
Sunlit
N/A
Visualization observer readout
Local Sidereal Time
23:55:28
Azimuth
Unknown
Elevation
Unknown
Doppler factor
Unknown
Orbital elements
Apogee altitude
9,831.848 km
Perigee altitude
566.965 km
Semi-major axis
11,577.543 km
Eccentricity
0.40012
Inclination
100.014°
RAAN
305.0189°
Arg. of periapsis
74.5385°
True anomaly
39.62077°
Mean anomaly
16.2931°
Eccentric anomaly
26.53481°
Mean motion
1.74228 °/min
Orbital period
206.63 mins
BSTAR
0.000091856
Loading maneuver chart data...
Computing Atmospheric mass density...
Loading historical data...
Loading historical data...
Loading historical data...
Loading historical data...
Loading historical data...
Loading historical data...
Loading historical data...
Other satellites on launch #26 in the year 1968 (1968-04-06 UTC)

Documentation

Showing up to 5 results
|